RH
38 40 38 38 40 39 37 36 34 31 28 27 30 33 34 34 34 32 30 29 28 27 27 26 26 25 24 25 24 22 20 22 22 21 21 23 38 52 51 54 56 56 52 44 32
40 41 43 46 46 47 47 49 47 44 40 39 39 37 36 35 36 34 32 30 30 29 28 27 26 28 27 27 25 24 24 25 25 25 24 25 27 35 50 56 60 64 63 60 54
49 51 52 53 52 56 56 55 53 49 45 43 42 39 38 37 37 33 32 31 29 28 24 23 25 25 25 25 28 29 29 28 27 28 29 28 30 28 44 58 62 72 78 85 87
57 60 60 60 62 60 60 58 56 52 50 48 45 44 41 38 37 34 32 28 24 22 20 19 22 24 26 27 29 31 31 28 27 26 23 22 24 38 41 64 80 87 92 88 89
66 69 71 73 73 72 67 64 63 60 58 56 51 47 40 36 32 30 26 20 16 16 16 19 20 24 30 30 27 26 24 22 22 22 24 32 39 46 71 82 92 100 91 86 81
86 85 81 81 87 83 79 74 72 64 56 48 42 38 35 29 23 17 13 10 10 14 17 25 27 30 30 31 27 23 20 23 26 39 50 47 68 67 96 95 94 99 89 84 74
90 92 94 93 88 84 76 58 42 32 31 30 30 22 15 11 9 8 8 8 11 16 20 30 28 34 33 33 26 24 22 26 48 52 54 73 74 83 93 100 96 94 97 82 86
87 89 84 71 59 43 32 35 30 25 18 10 9 8 8 8 8 9 11 13 18 18 20 33 44 45 40 30 24 25 30 37 60 65 63 74 79 95 99 90 98 94 83 84 94
61 58 56 51 41 39 22 14 13 10 9 9 8 7 7 9 13 15 16 11 16 28 37 47 57 48 36 30 27 30 36 48 54 62 72 85 90 97 94 92 91 87 84 90 97
53 60 53 52 40 24 14 11 11 10 10 9 8 8 10 7 8 13 19 19 27 37 46 63 61 46 37 36 34 37 37 48 55 59 79 88 93 86 85 85 92 92 95 99 92
53 57 49 42 20 11 11 12 11 10 10 9 8 7 7 7 8 16 20 32 39 44 66 73 59 57 47 44 53 59 64 63 71 71 76 85 89 97 95 96 98 88 87 54 40
27 38 33 23 6 8 12 13 13 12 10 9 8 7 7 8 13 26 27 47 77 86 75 69 75 62 48 36 45 56 67 75 82 87 90 90 99 89 91 90 84 57 37 17 10
9 7 6 6 6 7 10 13 13 13 11 9 8 8 9 17 29 46 46 67 92 89 72 66 70 57 44 43 55 68 71 78 86 100 99 98 92 89 89 84 74 24 10 10 6
12 7 6 7 7 8 11 14 15 14 11 9 8 10 16 26 42 87 95 97 100 96 91 79 71 58 44 49 62 72 75 85 92 94 92 83 93 89 66 25 11 11 10 6 4
7 7 7 7 8 10 11 14 15 13 11 10 9 8 14 23 66 100 100 100 100 97 86 72 71 61 49 58 74 79 85 88 94 96 94 86 88 74 15 11 12 9 5 5 4
9 9 9 9 10 10 12 15 14 12 10 10 6 5 8 19 51 100 100 100 98 92 81 70 64 59 61 71 81 81 90 89 95 96 97 89 63 16 12 13 10 6 5 4 2
11 12 12 12 11 11 12 12 10 10 9 8 6 5 6 7 10 87 98 100 94 77 69 62 67 60 74 85 80 85 91 91 94 96 84 32 37 14 14 12 7 6 4 2 3
12 12 14 14 12 12 11 9 8 9 8 7 6 5 5 4 6 11 52 88 95 73 75 44 63 80 87 88 87 92 96 98 96 98 77 68 16 14 13 8 6 5 2 3 15
15 13 14 16 14 12 11 10 9 9 8 7 6 6 5 4 4 6 7 22 57 49 57 39 64 85 87 87 88 97 97 98 98 100 78 29 15 14 12 7 7 3 2 9 34
20 16 16 19 18 15 12 11 10 10 9 8 7 6 5 4 4 4 5 11 27 38 53 57 73 94 90 91 93 99 96 96 97 99 75 16 17 16 10 7 6 2 6 24 32
26 24 23 22 22 21 17 16 13 11 10 9 8 6 5 4 4 4 7 23 58 67 82 88 94 100 96 89 98 97 97 99 99 97 33 17 18 15 9 7 3 2 26 35 41
33 32 31 29 28 25 22 19 17 14 12 11 8 6 5 4 4 5 11 26 86 100 95 100 95 100 92 98 99 94 98 98 99 68 28 18 19 14 9 6 2 9 35 40 53
39 38 34 33 30 28 24 20 19 16 14 12 9 8 6 7 12 20 46 99 97 100 100 100 98 96 95 99 99 98 99 98 99 66 26 20 20 13 9 6 2 23 45 40 52
45 43 39 37 34 34 31 24 20 18 16 12 10 9 7 12 82 83 46 100 100 100 100 100 100 97 98 100 98 98 99 100 96 49 19 21 22 14 9 4 2 34 47 37 49
52 49 39 40 40 39 36 29 22 20 18 12 11 9 8 12 75 100 90 39 76 100 100 99 100 100 99 99 99 99 98 100 79 20 21 24 20 16 10 4 4 36 52 56 59
57 54 47 44 45 42 43 36 26 22 22 18 12 12 10 8 20 69 100 100 100 100 99 100 100 100 100 100 99 99 100 99 45 23 23 26 19 17 11 4 4 37 58 62 64
68 63 50 46 49 49 47 41 31 26 24 21 15 12 12 11 10 32 95 100 100 100 100 100 100 99 100 99 98 100 100 95 35 25 25 27 19 18 12 4 6 44 58 80 86
Wind_Speed
35 35 35 35 37 35 35 34 34 36 36 37 38 39 39 40 40 38 39 40 40 41 42 43 43 44 44 42 41 42 44 42 46 45 46 47 48 49 50 49 50 50 51 53 51
38 38 39 39 39 39 39 39 38 38 37 38 39 39 39 39 39 39 40 41 43 43 43 44 44 44 45 44 43 43 43 44 45 44 46 45 48 49 50 51 49 48 50 50 51
38 39 40 41 41 41 40 41 41 40 39 40 40 40 40 40 40 41 42 45 46 46 45 46 47 47 47 45 43 42 43 47 46 44 47 49 47 47 49 50 50 47 47 49 50
42 41 41 42 43 43 42 42 42 42 42 42 42 42 43 41 41 43 46 48 47 47 47 46 46 46 45 45 43 42 44 45 44 43 45 47 46 48 48 48 47 47 49 51 50
45 45 45 44 43 45 44 43 42 42 43 43 44 44 44 43 44 47 48 49 49 48 47 46 47 46 43 43 44 40 39 41 42 42 45 46 46 48 45 46 45 48 52 53 53
48 48 47 46 44 43 43 42 41 41 43 44 44 43 45 47 46 48 50 50 49 47 46 44 44 42 41 43 41 40 41 40 41 40 42 43 45 45 41 44 44 44 45 42 46
49 47 45 44 42 39 39 40 38 39 42 42 43 44 46 48 49 50 51 51 49 46 44 42 42 41 41 39 39 38 40 40 38 40 42 41 41 40 40 40 40 42 43 44 44
40 40 40 38 36 35 36 38 39 40 41 41 43 45 47 49 51 52 50 49 46 43 43 41 39 38 35 36 35 37 39 38 37 40 40 39 37 37 37 39 40 40 42 39 43
36 34 34 36 37 37 37 38 40 41 43 45 47 48 50 49 48 51 48 49 43 39 39 38 36 31 32 32 34 36 38 38 38 37 37 34 34 37 40 39 39 40 39 39 38
43 40 39 39 40 40 40 40 41 42 44 47 47 48 46 46 46 45 40 42 41 39 37 33 30 28 29 31 34 37 38 37 37 37 34 31 30 33 33 32 37 38 33 26 24
44 44 43 42 42 41 40 40 42 42 44 46 48 48 47 47 45 41 36 36 36 37 30 27 26 26 27 30 31 33 33 34 35 35 31 30 27 31 33 33 30 25 19 16 20
46 48 47 43 39 40 41 42 43 45 45 44 45 45 45 42 39 36 34 32 32 30 26 24 24 26 27 29 30 31 30 31 30 31 29 28 26 27 25 21 11 10 13 21 25
45 45 43 40 40 39 40 42 43 44 46 45 43 42 38 32 31 32 33 33 32 27 25 25 25 27 27 29 30 29 30 28 26 22 21 16 13 11 8 5 6 14 19 24 26
44 43 40 38 38 39 38 38 40 40 45 46 43 39 35 28 25 25 27 30 31 25 24 24 24 26 27 28 28 27 29 27 24 17 12 10 7 7 2 7 14 18 22 26 30
37 38 37 38 38 36 37 37 38 36 42 43 42 40 35 27 23 20 20 25 23 20 20 25 23 25 28 28 27 26 28 26 23 16 9 5 3 6 9 13 15 19 23 29 33
34 36 36 35 36 34 34 35 35 35 39 38 37 33 31 29 24 26 19 25 19 15 15 19 20 22 25 25 25 25 25 23 19 13 9 4 5 3 10 14 18 21 26 32 37
32 31 33 33 32 32 31 31 30 31 33 34 33 30 30 28 26 32 23 8 14 18 14 17 19 22 24 23 24 24 24 21 14 8 6 5 5 7 11 14 17 22 29 35 34
32 31 28 30 30 29 27 27 28 30 28 31 31 30 30 29 24 21 26 29 23 18 15 17 18 21 22 21 22 23 22 18 13 10 7 5 5 8 12 16 20 26 30 32 22
31 28 29 28 27 25 24 24 25 25 27 28 29 31 28 26 26 21 20 17 18 16 18 21 19 21 21 21 22 21 19 13 10 11 10 5 7 9 13 18 22 29 31 22 17
33 30 26 27 26 24 23 22 24 24 25 27 29 29 26 25 24 22 20 18 18 19 20 19 19 19 21 20 21 17 13 9 7 9 7 3 6 11 14 19 26 32 25 17 17
35 33 28 28 27 24 23 23 24 23 23 26 28 27 27 25 23 21 20 19 16 16 17 17 17 17 18 19 18 13 11 7 8 8 2 2 7 11 16 21 28 26 14 15 14
37 35 31 29 27 25 23 22 22 22 23 26 25 25 25 24 22 20 19 19 13 11 14 15 15 15 17 18 16 14 11 7 9 5 2 4 9 12 18 23 29 18 12 11 10
38 34 32 29 24 21 20 20 21 21 22 24 24 24 23 21 18 17 15 14 14 14 15 11 12 13 15 16 14 11 9 8 10 6 2 4 8 13 19 24 26 10 10 11 10
40 35 32 28 25 23 21 20 20 21 22 22 23 23 23 18 14 12 16 17 19 16 12 11 12 13 14 13 12 9 7 9 12 5 2 5 10 13 18 24 21 6 10 9 8
39 36 32 29 27 25 23 21 20 19 21 21 22 23 22 20 16 11 12 17 21 16 13 11 9 11 11 10 10 6 7 11 11 3 1 5 9 13 18 24 15 2 9 10 10
41 36 33 30 29 26 24 22 22 21 22 23 23 22 22 22 20 14 12 11 11 14 15 11 10 9 9 9 8 5 8 11 7 3 1 5 9 13 18 23 9 3 6 10 12
42 36 35 34 30 28 26 24 22 22 20 26 25 23 24 23 17 16 13 10 11 10 10 10 9 9 8 8 5 6 10 14 6 2 2 6 8 14 18 21 6 6 7 9 12
Wind_Direction
297 298 298 298 299 300 300 301 300 300 299 299 299 300 301 303 302 304 303 304 304 302 301 301 299 297 296 298 295 292 289 287 279 276 273 270 268 266 265 265 265 265 264 262 260
294 295 296 297 298 300 300 300 300 299 299 299 300 300 301 301 298 302 304 303 302 302 301 300 299 300 299 297 293 289 287 281 278 278 276 273 272 269 269 267 267 268 267 266 262
294 295 295 296 297 297 298 298 298 297 297 297 297 296 297 297 300 301 302 302 300 299 299 300 299 300 300 297 290 287 285 282 283 281 277 275 272 271 267 265 266 264 263 264 265
293 293 293 294 294 293 294 294 294 293 292 292 293 295 296 297 300 299 298 299 299 298 299 301 299 299 297 294 288 286 287 286 285 281 279 277 273 269 267 266 266 266 265 264 263
291 292 293 292 292 293 292 291 290 290 290 292 294 295 297 298 298 297 296 296 297 296 296 298 299 299 295 291 289 291 289 289 286 283 278 275 274 270 268 266 265 267 267 269 266
289 290 291 291 291 291 292 292 291 292 293 295 296 297 295 295 296 295 294 294 296 296 299 299 299 295 291 288 290 292 294 291 290 285 279 276 271 270 266 266 267 268 266 269 268
289 290 290 290 289 288 287 290 292 292 294 295 294 293 293 295 295 295 294 296 296 296 296 295 294 291 288 287 293 296 293 292 289 282 281 279 275 268 265 265 268 269 272 273 276
286 287 288 288 287 287 287 289 290 292 292 293 294 293 294 294 295 294 295 295 296 294 292 291 289 286 288 290 296 298 295 294 290 289 287 280 274 267 266 265 267 274 275 275 276
285 284 281 282 282 283 285 288 289 291 294 296 295 296 296 296 296 294 296 294 291 287 287 290 286 287 287 293 301 299 297 295 291 293 285 277 272 266 262 267 269 277 275 278 285
277 272 273 278 281 282 285 289 290 294 300 300 300 300 299 297 293 294 291 290 287 286 289 285 284 287 290 299 302 301 298 296 292 294 287 272 271 271 266 262 271 272 281 272 263
276 274 276 282 286 283 288 291 295 297 302 303 304 304 302 300 298 295 289 281 283 285 283 277 283 288 294 297 298 304 300 298 299 300 288 271 274 272 273 270 275 274 257 253 266
280 278 279 282 281 283 289 292 296 299 299 305 306 305 304 301 299 293 288 283 283 280 275 276 281 284 291 297 299 305 308 302 304 300 290 273 273 277 273 271 252 247 266 271 274
280 280 279 281 280 283 287 290 296 301 303 307 308 305 304 301 295 287 283 280 281 274 276 278 286 289 295 300 303 308 311 308 305 305 287 269 263 260 249 204 241 266 274 281 288
277 278 279 280 280 283 285 292 298 301 302 311 311 309 306 301 295 295 288 277 267 267 275 279 286 288 294 299 304 308 313 312 303 301 275 267 207 182 224 283 281 285 290 294 295
273 275 277 278 280 283 286 291 294 297 306 311 311 310 303 299 293 262 266 254 259 269 274 278 285 291 293 302 307 308 312 308 302 298 269 228 161 185 271 273 287 295 299 302 302
274 276 278 280 280 280 283 288 292 297 304 309 310 306 302 295 290 251 270 258 257 256 273 281 286 290 296 302 309 308 306 306 303 286 257 202 156 234 276 289 300 305 308 308 306
273 275 279 280 280 280 283 287 291 296 304 309 306 303 299 294 287 274 291 236 274 254 271 279 290 295 299 304 311 305 305 304 296 292 200 203 222 274 287 301 307 311 312 309 308
270 276 277 280 280 280 282 285 289 294 304 306 304 298 298 295 288 284 287 293 304 310 292 287 281 290 297 308 313 304 306 299 278 278 218 228 279 301 308 312 316 317 317 320 314
270 270 277 279 282 281 282 287 291 298 303 306 302 295 297 290 290 284 272 277 283 302 286 290 288 294 303 310 313 308 308 290 273 258 201 233 292 310 316 317 322 327 327 327 326
266 268 270 277 280 282 282 286 290 296 303 304 299 299 298 290 284 281 268 265 257 268 270 277 283 293 302 309 309 309 301 280 257 221 170 238 291 317 324 329 332 332 334 341 343
263 265 267 273 278 282 283 285 288 294 300 303 301 301 297 289 284 279 269 256 259 254 264 274 281 293 300 304 306 303 282 258 243 179 194 313 320 326 335 334 337 338 341 343 343
258 263 267 271 275 279 284 289 294 297 300 303 300 304 296 291 283 277 263 256 255 255 267 274 280 290 293 298 304 295 281 236 219 175 223 326 331 333 339 339 343 342 345 347 351
250 257 261 268 276 283 285 291 297 297 297 302 301 304 299 292 284 274 259 263 258 273 273 272 278 279 284 301 306 294 275 225 191 155 246 328 339 339 343 343 345 343 349 345 347
245 249 254 262 272 281 283 288 293 294 297 303 303 303 301 289 282 295 256 252 268 286 277 279 276 281 287 300 302 293 247 212 164 170 265 338 339 343 344 347 351 338 357 355 350
240 244 249 257 267 276 282 287 291 290 299 302 302 305 303 292 261 279 287 261 265 286 279 276 271 274 285 292 295 275 211 201 137 176 308 339 343 345 348 352 356 309 40 29 14
238 241 245 254 266 275 284 285 286 285 294 302 300 304 309 305 277 254 276 270 262 276 274 273 265 270 286 293 287 235 196 171 148 170 356 342 347 345 351 353 2 236 71 32 41
237 239 244 250 259 267 277 280 282 281 297 298 297 303 305 311 289 253 261 260 245 256 267 263 265 269 288 291 270 206 179 154 162 165 358 346 345 345 347 352 10 188 83 79 83